Regional Weather Roundup
Issued by NWS Glasgow, MT

Home | Current Version | Previous Version | Text Only | Print | Product List | Glossary On
Versions: 1 2 3 4 5 6 7 8 9 10 11 12 13 14 15 16 17 18 19 20 21 22 23 24 25 26 27 28 29 30 31 32 33 34 35 36 37 38 39 40 41 42 43 44 45 46 47 48 49 50
000
ASUS45 KGGW 232215
RWRGGW
HOURLY WEATHER ROUNDUP FOR NORTHEAST MONTANA
NATIONAL WEATHER SERVICE GLASGOW MONTANA
400 PM MDT WED JUL 23 2014

NOTE: "FAIR" INDICATES FEW OR NO CLOUDS BELOW 12,000 FEET WITH NO
SIGNIFICANT WEATHER AND/OR OBSTRUCTIONS TO VISISBILITY.

NORTHEAST MONTANA


CITY           SKY/WX    TMP DP  RH WIND       PRES   REMARKS
GLASGOW        SUNNY     92  56  29 SE25G31   29.98F
PLENTYWOOD       N/A     84  62  47 E12G21      N/A
WOLF POINT     SUNNY     93  59  31 E21G28    30.01F
JORDAN           N/A     92  60  34 SE21G29   29.98F
WINNETT          N/A     93  54  26 SE3         N/A
SIDNEY         MOSUNNY   90  64  43 SE15      30.06F
GLENDIVE       PTSUNNY   90  64  43 E18G25    30.04F
MALTA            N/A     92  63  38 E8          N/A
SCOBEY           N/A     86  59  39 E14G21    30.06F

FORT PECK REPORTS


CITY           SKY/WX    TMP DP  RH WIND       PRES   REMARKS
FORT PECK        N/A     90  58  33 E16         N/A
THE PINES        N/A     92  53  26 E9          N/A

SOUTHEAST MONTANA


CITY           SKY/WX    TMP DP  RH WIND       PRES   REMARKS
BILLINGS       MOSUNNY   90  58  33 E8        30.02F
MILES CITY     PTSUNNY   95  63  34 E20G25    29.97F
BAKER          MOSUNNY   86  60  41 SE22G31   30.08F
LIVINGSTON     SUNNY     93  49  22 VRB7      30.05F

CENTRAL MONTANA


CITY           SKY/WX    TMP DP  RH WIND       PRES   REMARKS
HAVRE          PTSUNNY   93  57  29 E12G26    29.94F
LEWISTOWN      MOSUNNY   88  54  31 SW7       30.06F
GREAT FALLS    SUNNY     91  45  20 W8        29.98F
CUT BANK       SUNNY     84  55  36 S7        30.01F
HELENA         MOSUNNY   87  53  31 E16       30.00F
BUTTE          MOSUNNY   85  41  21 S13G18    30.14F
BOZEMAN        MOSUNNY   85  52  32 NE7       30.06F

WESTERN MONTANA


CITY           SKY/WX    TMP DP  RH WIND       PRES   REMARKS
MISSOULA       SUNNY     90  50  25 S18       29.93F
KALISPELL      NOT AVBL

NORTH DAKOTA


CITY           SKY/WX    TMP DP  RH WIND       PRES   REMARKS
WILLISTON      PTSUNNY   88  62  41 SE23G30   30.09F
DICKINSON      MOSUNNY   81  63  54 SE20G29   30.12F
MINOT          MOSUNNY   77  65  66 E17       30.17F
BISMARCK       SUNNY     83  60  45 SE16G23   30.17F

SOUTHERN SASKATCHEWAN


CITY           SKY/WX    TMP DP  RH WIND       PRES   REMARKS
REGINA         PTSUNNY   79  59  50 SE20      30.13F
MOOSE JAW      PTSUNNY   77  63  61 E16G22    30.11F
ESTEVAN        CLOUDY    75  64  69 E16       30.15F
SWIFT CURRENT  PTSUNNY   73  61  64 E22       30.03F




USA.gov is the U.S. government's official web portal to all federal, state and local government web resources and services.